FW8731 Weather Reports


time (UTC)temp
F
wind
direction
speed
knots
gust
knots
rain 1hr
in
rain 24hr
in
rain mn
in
humidity
%
barometer
mb
20260506103044 49 0 0.0 0.0 0.00 0.00 0.00 91 1018.1
20260506101547 49 0 0.0 0.0 0.00 0.00 0.00 90 1018.1
20260506100042 49 0 0.0 0.0 0.00 0.00 0.00 90 1017.9
20260506094540 50 0 0.0 0.0 0.00 0.00 0.00 90 1017.9
20260506093044 50 0 0.0 0.0 0.00 0.00 0.00 89 1017.8
20260506091536 50 0 0.0 0.0 0.00 0.00 0.00 88 1017.6
20260506090035 51 0 0.0 0.0 0.00 0.00 0.00 88 1017.6
20260506084551 51 0 0.0 0.0 0.00 0.00 0.00 87 1017.6
20260506083039 51 0 0.0 0.0 0.00 0.00 0.00 86 1017.6
20260506081541 52 0 0.0 0.0 0.00 0.00 0.00 86 1017.6
20260506073042 54 0 0.0 0.9 0.00 0.00 0.00 82 1017.1
20260506071541 54 0 0.0 0.0 0.00 0.00 0.00 82 1017.0
20260506061548 57 0 0.0 0.9 0.00 0.00 0.00 75 1016.5
20260506050104 61 51 0.0 0.9 0.00 0.00 0.00 66 1015.5
20260506044545 61 0 0.0 1.7 0.00 0.00 0.00 66 1015.3
20260506043043 63 51 0.0 1.7 0.00 0.00 0.00 63 1015.0
20260506041552 63 0 0.0 1.7 0.00 0.00 0.00 62 1014.8
20260506040045 65 56 0.0 1.7 0.00 0.00 0.00 58 1014.6
20260506034550 67 0 0.0 0.9 0.00 0.00 0.00 54 1014.3
20260506033040 69 56 0.9 1.7 0.00 0.00 0.00 50 1014.0
20260506031536 70 56 0.0 1.7 0.00 0.00 0.00 49 1013.9
20260506030043 71 0 0.0 1.7 0.00 0.00 0.00 47 1013.4
20260506024545 72 56 0.0 3.5 0.00 0.00 0.00 44 1013.2
20260506023042 74 0 0.9 2.6 0.00 0.00 0.00 42 1013.0
20260506021538 77 275 0.0 1.7 0.00 0.00 0.00 37 1013.0
20260506020037 80 0 0.0 3.5 0.00 0.00 0.00 35 1012.7
20260506014536 81 337 0.9 2.6 0.00 0.00 0.00 33 1012.4
20260506013051 81 304 0.0 5.2 0.00 0.00 0.00 34 1012.3
20260506011546 82 317 0.0 3.5 0.00 0.00 0.00 31 1012.2
20260506010048 82 5 0.9 3.5 0.00 0.00 0.00 33 1012.1
20260506004543 82 90 1.7 6.1 0.00 0.00 0.00 36 1012.1
20260506003042 82 286 0.9 2.6 0.00 0.00 0.00 37 1012.0
20260506001545 81 212 0.9 4.3 0.00 0.00 0.00 35 1011.9
20260506000038 80 208 2.6 6.1 0.00 0.00 0.00 36 1012.0
20260505234542 79 186 2.6 6.1 0.00 0.00 0.00 38 1012.1
20260505233046 79 177 1.7 6.1 0.00 0.00 0.00 41 1012.2
20260505231545 78 188 3.5 7.8 0.00 0.00 0.00 41 1012.3
20260505230100 78 213 2.6 9.6 0.00 0.00 0.00 45 1012.4
20260505224544 77 238 2.6 7.8 0.00 0.00 0.00 45 1012.5
20260505223046 76 228 2.6 7.0 0.00 0.00 0.00 48 1012.7
20260505221550 76 186 1.7 8.7 0.00 0.00 0.00 50 1013.0
20260505220052 75 203 2.6 8.7 0.00 0.00 0.00 48 1013.2
20260505214541 75 175 3.5 12.2 0.00 0.00 0.00 46 1013.4
20260505213037 74 190 1.7 7.8 0.00 0.00 0.00 46 1013.5
20260505211554 74 221 2.6 9.6 0.00 0.00 0.00 46 1013.6
20260505210042 73 186 3.5 11.3 0.00 0.00 0.00 47 1013.9
20260505204542 72 209 2.6 7.8 0.00 0.00 0.00 50 1014.0
20260505203039 71 194 1.7 7.0 0.00 0.00 0.00 55 1014.1
20260505201537 70 211 1.7 6.1 0.00 0.00 0.00 57 1014.4
20260505200048 69 234 1.7 6.1 0.00 0.00 0.00 59 1014.5
20260505194545 68 207 2.6 5.2 0.00 0.00 0.00 60 1014.7
20260505193057 67 113 0.0 6.1 0.00 0.00 0.00 62 1014.9
20260505191544 66 198 0.9 5.2 0.00 0.00 0.00 62 1015.2
20260505190048 66 200 0.9 3.5 0.00 0.00 0.00 63 1015.3
20260505184536 64 241 0.9 6.1 0.00 0.00 0.00 66 1015.4
20260505183043 64 180 1.7 5.2 0.00 0.00 0.00 66 1015.5
20260505181549 64 155 0.9 3.5 0.00 0.00 0.00 66 1015.6
20260505180039 63 38 0.9 3.5 0.00 0.00 0.00 66 1015.6
20260505174538 62 163 0.9 3.5 0.00 0.00 0.00 69 1015.7
20260505173043 60 288 0.0 2.6 0.00 0.00 0.00 72 1015.9
20260505171543 60 281 0.0 2.6 0.00 0.00 0.00 73 1015.8
20260505170043 59 281 0.9 2.6 0.00 0.00 0.00 75 1015.9
20260505164546 59 0 0.0 1.7 0.00 0.00 0.00 76 1016.0
20260505163036 58 281 0.0 2.6 0.00 0.00 0.00 78 1016.0
20260505161543 57 0 0.0 1.7 0.00 0.00 0.00 80 1016.0
20260505153042 55 0 0.0 1.7 0.00 0.00 0.00 83 1015.9
20260505151539 55 0 0.0 0.9 0.00 0.00 0.00 85 1015.9
20260505124547 52 0 0.0 0.9 0.00 0.00 0.00 89 1014.8
20260505123045 52 0 0.0 0.9 0.00 0.00 0.00 90 1014.7
20260505121544 51 0 0.0 0.9 0.00 0.00 0.00 90 1014.6
20260505120054 51 0 0.0 0.0 0.00 0.00 0.00 91 1014.6
20260505114542 51 0 0.0 0.9 0.00 0.00 0.00 91 1014.5
20260505113042 50 0 0.0 0.9 0.00 0.00 0.00 91 1014.5
20260505111545 50 177 0.0 0.9 0.00 0.00 0.00 91 1014.5